Weather History for Plymouth, NH

Change the Weather History Date:

Sunday, December 16, 2012

  Actual Average (KLCI) Record (KLCI)
Temperature  
Mean Temperature 22 °F -  
Max Temperature 24 °F 35 °F 48 °F (1993)
Min Temperature 20 °F 20 °F 3 °F (2013)
Degree Days  
Heating Degree Days 43    
Moisture  
Dew Point 15 °F    
Average Humidity 74    
Maximum Humidity 94    
Minimum Humidity 48    
Precipitation  
Precipitation 0.13 in - - ()
Sea Level Pressure  
Sea Level Pressure 30.24 in    
Wind  
Wind Speed 2 mph (East)    
Max Wind Speed 8 mph    
Max Gust Speed -    
Visibility 6 miles    
Events Snow    
Averages and records for this station are not official NWS values.
T = Trace of Precipitation, MM = Missing Value Source: NWS Daily Summary

Daily Weather History Graph

Daily Weather History Graph

Search for Another Location

Airport:

Trip Planner

Search our weather history database for the weather conditions in past years. The results will help you decide how hot, cold, wet, or windy it might be!

Date:

Astronomy

Dec. 16, 2012 Rise Set
Actual Time 7:15 AM EST 4:10 PM EST
Civil Twilight 6:42 AM EST 4:43 PM EST
Nautical Twilight 6:05 AM EST 5:20 PM EST
Astronomical Twilight 5:30 AM EST 5:55 PM EST
Moon 9:41 AM EST (12/16) 8:28 PM EST (12/16)
Length of Visible Light 10h 01m
Length of Day
8h 55m
Waxing Crescent, 16% of the Moon is Illuminated
Dec 16
Waxing Crescent
Dec 20
First Quarter
Dec 28
Full
Jan 4
Last Quarter
Jan 11
New

Hourly Weather History & Observations

Time (EST) Temp. Windchill Dew Point Humidity Pressure Visibility Wind Dir Wind Speed Gust Speed Precip Events Conditions
12:15 AM 20.3 °F - 14.4 °F 78% 30.32 in 10.0 mi Calm Calm - N/A   Clear
12:35 AM 20.1 °F - 13.6 °F 76% 30.33 in 10.0 mi Calm Calm - N/A   Scattered Clouds
12:55 AM 20.1 °F - 14.4 °F 78% 30.33 in 10.0 mi Calm Calm - N/A   Mostly Cloudy
1:15 AM 20.3 °F - 14.9 °F 80% 30.32 in 10.0 mi Calm Calm - N/A   Mostly Cloudy
1:55 AM 21.6 °F - 13.3 °F 70% 30.32 in 10.0 mi Calm Calm - N/A   Mostly Cloudy
2:15 AM 22.1 °F - 12.7 °F 67% 30.32 in 10.0 mi Calm Calm - N/A   Mostly Cloudy
2:35 AM 22.6 °F 18.0 °F 12.2 °F 64% 30.32 in 10.0 mi East 3.5 mph - N/A   Scattered Clouds
2:55 AM 22.6 °F 18.0 °F 12.4 °F 65% 30.31 in 10.0 mi ENE 3.5 mph - N/A   Scattered Clouds
3:15 AM 22.5 °F 17.8 °F 11.8 °F 64% 30.31 in 10.0 mi ENE 3.5 mph - N/A   Mostly Cloudy
3:55 AM 22.6 °F 16.5 °F 11.5 °F 62% 30.30 in 10.0 mi East 4.6 mph - N/A   Overcast
4:15 AM 22.5 °F - 10.6 °F 60% 30.31 in 10.0 mi Calm Calm - N/A   Overcast
4:35 AM 22.1 °F 17.4 °F 10.8 °F 62% 30.31 in 10.0 mi ENE 3.5 mph - N/A   Overcast
4:55 AM 22.6 °F 15.3 °F 9.5 °F 57% 30.30 in 10.0 mi East 5.8 mph - N/A   Overcast
5:15 AM 22.8 °F 16.7 °F 9.1 °F 56% 30.30 in 10.0 mi East 4.6 mph - N/A   Overcast
5:35 AM 22.8 °F 15.5 °F 9.7 °F 57% 30.30 in 10.0 mi East 5.8 mph - N/A   Overcast
5:55 AM 22.8 °F 16.7 °F 9.3 °F 56% 30.30 in 10.0 mi East 4.6 mph - N/A   Overcast
6:15 AM 22.8 °F 14.5 °F 8.6 °F 55% 30.30 in 10.0 mi East 6.9 mph - N/A   Overcast
6:35 AM 22.8 °F 16.7 °F 8.2 °F 54% 30.30 in 10.0 mi East 4.6 mph - N/A   Overcast
6:55 AM 22.8 °F 15.5 °F 8.2 °F 54% 30.30 in 10.0 mi East 5.8 mph - N/A   Overcast
7:15 AM 22.8 °F 15.5 °F 8.4 °F 54% 30.30 in 10.0 mi East 5.8 mph - N/A   Overcast
7:35 AM 22.8 °F 14.5 °F 8.4 °F 54% 30.29 in 10.0 mi East 6.9 mph - N/A   Overcast
7:55 AM 22.6 °F 16.5 °F 7.9 °F 53% 30.30 in 10.0 mi East 4.6 mph - N/A   Overcast
8:15 AM 22.6 °F 15.3 °F 6.8 °F 51% 30.30 in 10.0 mi East 5.8 mph - N/A   Overcast
8:35 AM 22.6 °F 16.5 °F 6.3 °F 50% 30.30 in 10.0 mi East 4.6 mph - N/A   Overcast
8:55 AM 22.6 °F 13.4 °F 5.7 °F 48% 30.31 in 10.0 mi East 8.1 mph - N/A   Overcast
9:15 AM 22.8 °F 15.5 °F 5.5 °F 48% 30.32 in 10.0 mi East 5.8 mph - N/A   Overcast
9:35 AM 23.0 °F 14.7 °F 6.4 °F 49% 30.32 in 10.0 mi East 6.9 mph - N/A Snow Light Snow
9:55 AM 23.0 °F 15.8 °F 6.8 °F 50% 30.32 in 10.0 mi East 5.8 mph - N/A   Overcast
10:15 AM 23.0 °F 14.7 °F 5.9 °F 48% 30.31 in 10.0 mi East 6.9 mph - N/A   Overcast
10:35 AM 23.0 °F 17.0 °F 5.9 °F 48% 30.30 in 10.0 mi East 4.6 mph - N/A   Overcast
10:55 AM 23.0 °F 13.9 °F 5.9 °F 48% 30.29 in 10.0 mi ENE 8.1 mph - N/A   Overcast
11:15 AM 23.0 °F 17.0 °F 6.3 °F 49% 30.28 in 10.0 mi East 4.6 mph - N/A   Overcast
11:35 AM 22.8 °F 16.7 °F 7.9 °F 53% 30.27 in 7.0 mi SE 4.6 mph - N/A Snow Light Snow
11:55 AM 22.6 °F 15.3 °F 9.9 °F 58% 30.26 in 10.0 mi ESE 5.8 mph - N/A   Overcast
12:15 PM 22.3 °F 14.9 °F 11.8 °F 64% 30.26 in 3.0 mi East 5.8 mph - N/A Snow Light Snow
12:35 PM 21.9 °F 17.2 °F 13.5 °F 70% 30.25 in 2.5 mi ESE 3.5 mph - N/A Snow Light Snow
12:55 PM 21.6 °F 15.3 °F 15.1 °F 76% 30.24 in 2.0 mi East 4.6 mph - N/A Snow Light Snow
1:15 PM 21.6 °F 16.8 °F 16.5 °F 81% 30.24 in 1.5 mi SE 3.5 mph - N/A Snow Light Snow
1:35 PM 21.2 °F - 17.6 °F 86% 30.23 in 1.2 mi Calm Calm - N/A Snow Light Snow
1:55 PM 21.6 °F - 18.5 °F 88% 30.22 in 1.2 mi Calm Calm - N/A Snow Light Snow
2:15 PM 21.6 °F - 18.7 °F 89% 30.21 in 1.0 mi Calm Calm - N/A Snow Light Snow
2:35 PM 21.9 °F - 19.4 °F 90% 30.21 in 1.8 mi Calm Calm - N/A Snow Light Snow
2:55 PM 22.1 °F - 19.0 °F 88% 30.20 in 4.0 mi Calm Calm - N/A Snow Light Snow
3:15 PM 22.1 °F 17.4 °F 19.2 °F 89% 30.20 in 2.0 mi ESE 3.5 mph - N/A Snow Light Snow
3:35 PM 22.3 °F - 19.4 °F 89% 30.19 in 2.5 mi Calm Calm - N/A Snow Light Snow
3:55 PM 22.5 °F - 19.9 °F 90% 30.19 in 2.0 mi Calm Calm - N/A Snow Light Snow
4:15 PM 22.5 °F - 20.3 °F 91% 30.19 in 2.5 mi Calm Calm - N/A Snow Light Snow
4:35 PM 22.5 °F - 20.3 °F 91% 30.18 in 2.5 mi Calm Calm - N/A Snow Light Snow
4:55 PM 22.8 °F - 20.8 °F 92% 30.18 in 3.0 mi Calm Calm - N/A Snow Light Snow
5:15 PM 23.0 °F - 21.0 °F 92% 30.17 in 2.0 mi Calm Calm - N/A Snow Light Snow
5:35 PM 23.0 °F - 21.0 °F 92% 30.18 in 1.8 mi Calm Calm - N/A Snow Light Snow
5:55 PM 23.0 °F - 21.2 °F 93% 30.18 in 1.8 mi Calm Calm - 0.01 in Snow Light Snow
6:15 PM 23.4 °F - 21.6 °F 93% 30.18 in 1.2 mi Calm Calm - 0.01 in Snow Light Snow
6:35 PM 23.4 °F - 21.9 °F 94% 30.18 in 1.5 mi Calm Calm - 0.03 in   Overcast
6:55 PM 23.5 °F - 22.1 °F 94% 30.17 in 1.2 mi Calm Calm - 0.03 in Snow Light Snow
7:15 PM 23.5 °F - 21.9 °F 94% 30.16 in 1.5 mi Calm Calm - N/A Snow Light Snow
7:35 PM 23.7 °F - 22.1 °F 94% 30.16 in 2.0 mi Calm Calm - 0.01 in Snow Light Snow
7:55 PM 23.9 °F - 22.1 °F 93% 30.16 in 2.0 mi Calm Calm - 0.01 in Snow Light Snow
8:15 PM 23.9 °F - 22.5 °F 94% 30.17 in 2.5 mi Calm Calm - N/A Snow Light Snow
8:35 PM 24.3 °F - 22.1 °F 91% 30.16 in 2.0 mi Calm Calm - N/A Snow Light Snow
8:55 PM 24.3 °F - 22.1 °F 91% 30.16 in 3.0 mi Calm Calm - N/A Snow Light Snow
9:15 PM 24.4 °F - 22.1 °F 91% 30.16 in 2.0 mi Calm Calm - 0.01 in Snow Light Snow
9:35 PM 24.3 °F - 22.5 °F 93% 30.16 in 2.0 mi Calm Calm - 0.03 in Snow Light Snow
9:55 PM 24.1 °F - 22.6 °F 94% 30.15 in 2.0 mi Calm Calm - 0.03 in Snow Light Snow
10:15 PM 24.3 °F - 22.8 °F 94% 30.15 in 1.8 mi Calm Calm - 0.01 in Snow Light Snow
10:35 PM 24.6 °F - 23.0 °F 94% 30.16 in 2.5 mi Calm Calm - 0.02 in Snow Light Snow
10:55 PM 24.8 °F 20.5 °F 22.5 °F 91% 30.15 in 4.0 mi East 3.5 mph - 0.03 in Snow Light Snow
11:15 PM 24.8 °F 20.5 °F 22.1 °F 89% 30.15 in 4.0 mi East 3.5 mph - N/A Snow Light Snow
11:35 PM 24.4 °F 18.6 °F 22.3 °F 91% 30.14 in 1.5 mi ESE 4.6 mph - N/A Snow Light Snow
11:55 PM 24.3 °F 19.9 °F 22.1 °F 91% 30.14 in 2.0 mi ESE 3.5 mph - 0.02 in Snow Light Snow